This is the latest recevied weather packets stored in our database for station/object IW1CBG-23. If no packets are shown the sender has not sent any weather packets the latest 10 day(s).
| Time | Temp. | Humidity | Pressure | Rain* | Wind** | Luminosity | Snow |
|---|---|---|---|---|---|---|---|
| 1777139553 | 11.11° C | 99% | 1010.4 hPa | - | - | - | - |
| 1777138319 | 11.67° C | 99% | 1010.4 hPa | - | - | - | - |
| 1777137283 | 12.78° C | 99% | 1010.3 hPa | - | - | - | - |
| 1777137082 | 12.78° C | 99% | 1010.3 hPa | - | - | - | - |
| 1777135844 | 12.78° C | 99% | 1010.4 hPa | - | - | - | - |
| 1777134607 | 13.33° C | 99% | 1010.3 hPa | - | - | - | - |
| 1777133369 | 13.89° C | 99% | 1010.3 hPa | - | - | - | - |
| 1777132134 | 15° C | 99% | 1010.3 hPa | - | - | - | - |
| 1777130897 | 15° C | 91% | 1010.3 hPa | - | - | - | - |
| 1777129661 | 16.11° C | 78% | 1010.4 hPa | - | - | - | - |
| 1777128425 | 16.11° C | 77% | 1010.3 hPa | - | - | - | - |
| 1777127188 | 15.56° C | 75% | 1010.4 hPa | - | - | - | - |
| 1777125950 | 16.11° C | 72% | 1010.4 hPa | - | - | - | - |
| 1777124713 | 16.67° C | 67% | 1010.5 hPa | - | - | - | - |
| 1777123478 | 17.22° C | 65% | 1010.8 hPa | - | - | - | - |
| 1777122241 | 17.22° C | 69% | 1010.8 hPa | - | - | - | - |
| 1777121004 | 17.78° C | 68% | 1010.9 hPa | - | - | - | - |
| 1777119766 | 17.78° C | 64% | 1010.9 hPa | - | - | - | - |
| 1777118529 | 18.33° C | 62% | 1011 hPa | - | - | - | - |
| 1777117296 | 19.44° C | 59% | 1011.1 hPa | - | - | - | - |
| 1777116060 | 18.89° C | 56% | 1011.4 hPa | - | - | - | - |
| 1777114824 | 20.56° C | 56% | 1011.4 hPa | - | - | - | - |
| 1777113585 | 20.56° C | 57% | 1011.6 hPa | - | - | - | - |
| 1777112346 | 19.44° C | 56% | 1011.9 hPa | - | - | - | - |
| 1777111108 | 19.44° C | 53% | 1011.9 hPa | - | - | - | - |
* Rain since midnight (hover to see other rain measurements)
** Current wind speed in m/s (hover to see current wind gust speed)